This is the latest recevied weather packets stored in our database for station/object K5NWZ. If no packets are shown the sender has not sent any weather packets the latest 10 day(s).
| Time | Temp. | Humidity | Pressure | Rain* | Wind** | Luminosity | Snow |
|---|---|---|---|---|---|---|---|
| 1788052855 | 23.89° C | 42% | 1026.3 hPa | 0 mm | - | 8 W/m² | - |
| 1788052550 | 23.33° C | 44% | 1026.3 hPa | 0 mm | - | 11 W/m² | - |
| 1788052245 | 23.33° C | 46% | 1026.2 hPa | 0 mm | - | 15 W/m² | - |
| 1788051940 | 23.89° C | 46% | 1026.2 hPa | 0 mm | - | 17 W/m² | - |
| 1788051635 | 23.89° C | 45% | 1026.3 hPa | 0 mm | - | 22 W/m² | - |
| 1788051332 | 23.89° C | 46% | 1026.7 hPa | 0 mm | - | 26 W/m² | - |
| 1788051027 | 23.89° C | 47% | 1026.5 hPa | 0 mm | - | 18 W/m² | - |
| 1788050726 | 23.89° C | 48% | 1026.5 hPa | 0 mm | - | 24 W/m² | - |
| 1788050426 | 24.44° C | 48% | 1026.2 hPa | 0 mm | - | 30 W/m² | - |
| 1788050127 | 25.56° C | 47% | 1026.1 hPa | 0 mm | - | 33 W/m² | - |
| 1788049816 | 27.22° C | 40% | 1026 hPa | 0 mm | - | 46 W/m² | - |
| 1788049509 | 27.78° C | 39% | 1025.8 hPa | 0 mm | - | 74 W/m² | - |
| 1788049205 | 28.33° C | 38% | 1025.5 hPa | 0 mm | - | 75 W/m² | - |
| 1788048900 | 27.78° C | 38% | 1025.3 hPa | 0 mm | - | 119 W/m² | - |
| 1788048595 | 27.78° C | 40% | 1025.2 hPa | 0 mm | - | 80 W/m² | - |
| 1788048292 | 27.78° C | 39% | 1025.2 hPa | 0 mm | - | 79 W/m² | - |
| 1788047990 | 27.78° C | 39% | 1024.9 hPa | 0 mm | - | 90 W/m² | - |
| 1788047684 | 27.78° C | 39% | 1025.1 hPa | 0 mm | - | 112 W/m² | - |
| 1788047383 | 27.78° C | 40% | 1024.8 hPa | 0 mm | - | 124 W/m² | - |
| 1788047079 | 27.78° C | 39% | 1024.8 hPa | 0 mm | - | 119 W/m² | - |
| 1788046773 | 27.78° C | 39% | 1024.9 hPa | 0 mm | - | 120 W/m² | - |
| 1788046467 | 27.78° C | 39% | 1024.9 hPa | 0 mm | - | 105 W/m² | - |
| 1788046166 | 27.78° C | 39% | 1024.7 hPa | 0 mm | - | 98 W/m² | - |
| 1788045861 | 27.78° C | 38% | 1024.5 hPa | 0 mm | - | 86 W/m² | - |
| 1788045556 | 27.78° C | 38% | 1024.6 hPa | 0 mm | - | 85 W/m² | - |
* Rain latest hour (hover to see other rain measurements)
** Current wind speed in m/s (hover to see current wind gust speed)